THOR ABLESTAR DEB, 126

Orbit data source: Space-Track

THOR ABLESTAR DEB, 126 is space debris in LEO originally from a launch on Thu, 29 Jun 1961 UTC launched from the Air Force Eastern Test Range (AFETR). Debris objects in space refer to the collection of defunct objects orbiting the Earth. Examples of debris include non-operational satellites, rocket bodies, and fragments generated from explosions, collisions, or faulty payload assembly.

Loading next visibility...
Identifier
126, 1961-015L
Orbit
LEO
Country
Flag of USUS
Related business
Manufacturer
Unknown
Mission
Spacecraft
Bus & Motor
Unknown
Mass
Unknown
Launch date (UTC)
1961-06-29 (65 years ago)
Launch vehicle
Unknown
Launch site
Air Force Eastern Test Range (AFETR)
Object type
Payload
Rocket body
Debris
Shape & HBR
Unknown shape, 0.4 m
Radar Cross Section
Medium (>0.1 m² and <1 m²)

Expand to show TLE details & history
Last TLE update: 8 hours ago

TLE from 8 hours ago
0 THOR ABLESTAR DEB
1 00126U 61015L   26037.51147009  .00002277  00000-0  66994-3 0  9992
2 00126  66.7086  83.7440 0061129 345.7986  14.1398 14.44442021345724
Epoch: 2026-02-06T12:16Z
TLE epoch observation values (Epoch: 2026-02-06T12:16:31.015Z)
Latitude
-0.00003°
Longitude
122.96646°
Altitude
703.776 km
Speed
7.527 km/s
True Right ascension
05h 34m 58s
True Declination
0° 00' 00"
Sunlit
Object was in full shadow at epoch
Visualization orbit readout
Latitude
Unknown
Longitude
Unknown
Altitude
Unknown
Speed
Unknown
Apparent Right ascension
Unknown
Apparent Declination
Unknown
Sunlit
N/A
Visualization observer readout
Local Sidereal Time
22:41:55
Azimuth
Unknown
Elevation
Unknown
Doppler factor
Unknown
Orbital elements
Apogee altitude
785.749 km
Perigee altitude
698.696 km
Semi-major axis
7,120.36 km
Eccentricity
0.00611
Inclination
66.7086°
RAAN
83.744°
Arg. of periapsis
345.7986°
True anomaly
14.3122°
Mean anomaly
14.1398°
Eccentric anomaly
14.22587°
Mean motion
3.61235 °/min
Orbital period
99.66 mins
BSTAR
0.00066994
Loading maneuver chart data...
Computing Atmospheric mass density...

Documentation

Showing up to 5 results
|